Franklin, NC

6:24 AM EDT on May 26, 2017 (GMT -0400)
Franklin

Weather History for K1A5 - December, 2011

Change the Weather History Date:

Wednesday, December 21, 2011

  Actual Average (KTOC) Record (KTOC)
Temperature  
Mean Temperature 54 °F -  
Max Temperature 60 °F 51 °F 62 °F (2016)
Min Temperature 46 °F 35 °F 28 °F (2016)
Degree Days  
Heating Degree Days 11    
Growing Degree Days 4 (Base 50)    
Moisture  
Dew Point 51 °F    
Average Humidity 89    
Maximum Humidity 94    
Minimum Humidity 77    
Precipitation  
Precipitation 0.38 in - - ()
Sea Level Pressure  
Sea Level Pressure 30.02 in    
Wind  
Wind Speed 3 mph (ESE)    
Max Wind Speed 7 mph    
Max Gust Speed 17 mph    
Visibility 7 miles    
Events Fog , Rain    
Averages and records for this station are not official NWS values.
T = Trace of Precipitation, MM = Missing Value Source: NWS Daily Summary

Daily Weather History Graph

Daily Weather History Graph

Search for Another Location

Airport or City:

Trip Planner

Search our weather history database for the weather conditions in past years. The results will help you decide how hot, cold, wet, or windy it might be!

Date:

Astronomy

Dec. 21, 2011 Rise Set
Actual Time 7:38 AM EST 5:25 PM EST
Civil Twilight 7:09 AM EST 5:53 PM EST
Nautical Twilight 6:38 AM EST 6:25 PM EST
Astronomical Twilight 6:07 AM EST 6:56 PM EST
Moon 4:12 AM EST (12/21) 2:42 PM EST (12/21)
Length of Visible Light 10h 43m
Length of Day
9h 46m
Waning Crescent, 12% of the Moon is Illuminated
Dec 21
Waning Crescent
Dec 24
New
Jan 1
First Quarter
Jan 9
Full
Jan 16
Last Quarter

Hourly Weather History & Observations

Time (EST) Temp. Dew Point Humidity Pressure Visibility Wind Dir Wind Speed Gust Speed Precip Events Conditions
12:15 AM 51.8 °F 48.2 °F 88% 30.13 in 10.0 mi East 3.5 mph - N/A Rain Light Rain
12:35 AM 51.8 °F 46.4 °F 82% 30.13 in 10.0 mi East 3.5 mph - N/A Rain Light Rain
12:55 AM 51.8 °F 48.2 °F 88% 30.13 in 10.0 mi East 3.5 mph - 0.01 in Rain Light Rain
1:15 AM 51.8 °F 48.2 °F 88% 30.12 in 10.0 mi NE 6.9 mph - N/A Rain Rain
1:35 AM 51.8 °F 48.2 °F 88% 30.12 in 10.0 mi ENE 4.6 mph - 0.01 in Rain Light Rain
1:55 AM 51.8 °F 48.2 °F 88% 30.11 in 10.0 mi NE 5.8 mph - 0.02 in Rain Light Rain
2:15 AM 51.8 °F 48.2 °F 88% 30.10 in 10.0 mi ENE 3.5 mph - 0.01 in Rain Light Rain
2:35 AM 51.8 °F 48.2 °F 88% 30.09 in 10.0 mi East 4.6 mph - 0.02 in Rain Rain
2:55 AM 51.8 °F 50.0 °F 94% 30.08 in 10.0 mi SSE 5.8 mph - 0.02 in   Overcast
3:15 AM 51.8 °F 50.0 °F 94% 30.08 in 10.0 mi Calm Calm - N/A   Overcast
3:35 AM 51.8 °F 48.2 °F 88% 30.08 in 7.0 mi Calm Calm - N/A   Overcast
3:55 AM 51.8 °F 50.0 °F 94% 30.07 in 5.0 mi East 3.5 mph - N/A Rain Rain
4:15 AM 51.8 °F 50.0 °F 94% 30.06 in 7.0 mi Calm Calm - 0.02 in Rain Light Rain
4:35 AM 51.8 °F 48.2 °F 88% 30.05 in 7.0 mi ESE 3.5 mph - 0.02 in   Light Drizzle
4:55 AM 51.8 °F 50.0 °F 94% 30.05 in 7.0 mi Calm Calm - 0.02 in   Overcast
5:15 AM 51.8 °F 50.0 °F 94% 30.04 in 7.0 mi SE 4.6 mph - N/A Rain Light Rain
5:35 AM 51.8 °F 50.0 °F 94% 30.02 in 7.0 mi East 5.8 mph - N/A   Overcast
5:55 AM 50.0 °F 48.2 °F 94% 30.02 in 7.0 mi East 4.6 mph - N/A   Overcast
6:15 AM 51.8 °F 50.0 °F 94% 30.01 in 10.0 mi ENE 3.5 mph - N/A   Overcast
7:15 AM 53.6 °F 50.0 °F 88% 30.01 in 10.0 mi SE 3.5 mph - N/A   Overcast
7:35 AM 53.6 °F 50.0 °F 88% 30.03 in 10.0 mi South 4.6 mph - N/A   Overcast
7:55 AM 53.6 °F 50.0 °F 88% 30.03 in 10.0 mi ESE 6.9 mph - N/A   Overcast
8:15 AM 53.6 °F 50.0 °F 88% 30.02 in 10.0 mi SE 5.8 mph - N/A   Overcast
8:35 AM 53.6 °F 50.0 °F 88% 30.02 in 10.0 mi ESE 3.5 mph - N/A   Overcast
8:55 AM 55.4 °F 50.0 °F 82% 30.01 in 10.0 mi Calm Calm - N/A   Overcast
9:15 AM 55.4 °F 50.0 °F 82% 30.01 in 5.0 mi Calm Calm - 0.02 in Rain Light Rain
9:35 AM 53.6 °F 51.8 °F 94% 30.02 in 10.0 mi SE 4.6 mph - 0.02 in   Light Drizzle
9:55 AM 53.6 °F 51.8 °F 94% 30.01 in 10.0 mi SSE 6.9 mph - 0.02 in   Light Drizzle
10:15 AM 55.4 °F 51.8 °F 88% 30.01 in 10.0 mi SSE 6.9 mph - 0.01 in Rain Rain
10:35 AM 55.4 °F 51.8 °F 88% 30.01 in 10.0 mi SSE 4.6 mph - 0.01 in   Light Drizzle
10:55 AM 55.4 °F 53.6 °F 94% 30.01 in 10.0 mi SSE 3.5 mph - 0.01 in   Overcast
11:35 AM 57.2 °F 53.6 °F 88% 30.00 in 10.0 mi South 3.5 mph - N/A   Overcast
11:55 AM 59.0 °F 53.6 °F 82% 29.99 in 7.0 mi SE 4.6 mph - 0.01 in Rain Light Rain
12:15 PM 59.0 °F 53.6 °F 82% 29.98 in 10.0 mi SSE 3.5 mph - N/A Rain Light Rain
12:35 PM 59.0 °F 53.6 °F 82% 29.95 in 10.0 mi SE 5.8 mph - N/A   Light Drizzle
12:55 PM 59.0 °F 53.6 °F 82% 29.95 in 10.0 mi SSE 5.8 mph - N/A   Overcast
1:15 PM 60.8 °F 53.6 °F 77% 29.94 in 10.0 mi South 5.8 mph 17.3 mph N/A Rain Light Rain
1:35 PM 59.0 °F 53.6 °F 82% 29.92 in 10.0 mi SSE 5.8 mph - 0.01 in   Light Drizzle
1:55 PM 59.0 °F 53.6 °F 82% 29.92 in 10.0 mi SW 4.6 mph - 0.01 in Rain Rain
2:15 PM 59.0 °F 53.6 °F 82% 29.94 in 5.0 mi SE 4.6 mph - 0.03 in Rain Rain
2:35 PM 59.0 °F 53.6 °F 82% 29.94 in 3.0 mi West 3.5 mph - 0.10 in Rain Heavy Rain
2:55 PM 59.0 °F 55.4 °F 88% 29.94 in 2.5 mi Calm Calm - 0.23 in Rain Rain
3:15 PM 59.0 °F 55.4 °F 88% 29.94 in 7.0 mi SE 3.5 mph - 0.01 in   Drizzle
3:35 PM 59.0 °F 55.4 °F 88% 29.94 in 7.0 mi Calm Calm - 0.01 in   Heavy Drizzle
3:55 PM 59.0 °F 55.4 °F 88% 29.95 in 10.0 mi ESE 3.5 mph - 0.02 in   Light Drizzle
4:15 PM 59.0 °F 55.4 °F 88% 29.95 in 10.0 mi ENE 4.6 mph - N/A Rain Light Rain
4:35 PM 59.0 °F 55.4 °F 88% 29.96 in 10.0 mi ENE 4.6 mph - N/A   Overcast
4:55 PM 59.0 °F 55.4 °F 88% 29.96 in 10.0 mi East 3.5 mph - N/A   Overcast
5:15 PM 57.2 °F 55.4 °F 94% 29.97 in 10.0 mi Calm Calm - N/A   Overcast
5:35 PM 57.2 °F 53.6 °F 88% 29.97 in 10.0 mi ENE 4.6 mph - N/A   Mostly Cloudy
5:55 PM 57.2 °F 55.4 °F 94% 29.97 in 10.0 mi Calm Calm - N/A   Overcast
6:15 PM 55.4 °F 53.6 °F 94% 29.99 in 10.0 mi Calm Calm - N/A   Overcast
6:55 PM 55.4 °F 53.6 °F 94% 29.99 in 5.0 mi Calm Calm - N/A   Overcast
7:35 PM 53.6 °F 51.8 °F 94% 30.01 in 4.0 mi Calm Calm - 0.01 in   Clear
7:55 PM 53.6 °F 51.8 °F 94% 30.01 in 4.0 mi Calm Calm - 0.01 in   Clear
8:15 PM 53.6 °F 51.8 °F 94% 30.02 in 1.2 mi Calm Calm - N/A   Mist
8:35 PM 53.6 °F 51.8 °F 94% 30.02 in 0.5 mi Calm Calm - N/A Fog Fog
8:55 PM 51.8 °F 50.0 °F 94% 30.02 in 0.5 mi Calm Calm - N/A Fog Fog
9:15 PM 51.8 °F 50.0 °F 94% 30.02 in 0.2 mi Calm Calm - N/A Fog Fog
9:35 PM 50.0 °F 46.4 °F 87% 30.02 in 0.2 mi Calm Calm - N/A Fog Fog
10:15 PM 50.0 °F 46.4 °F 87% 30.04 in 0.2 mi Calm Calm - N/A Fog Fog
10:35 PM 48.2 °F 46.4 °F 93% 30.04 in 0.2 mi Calm Calm - N/A Fog Fog
10:55 PM 48.2 °F 46.4 °F 93% 30.04 in 0.2 mi Calm Calm - N/A Fog Fog
11:15 PM 48.2 °F 46.4 °F 93% 30.04 in 0.2 mi Calm Calm - N/A Fog Fog
11:35 PM 48.2 °F 46.4 °F 93% 30.04 in 0.2 mi Calm Calm - N/A Fog Fog
11:55 PM 46.4 °F 44.6 °F 93% 30.04 in 0.2 mi Calm Calm - N/A Fog Fog